Regional Weather Roundup
Issued by NWS

Home | Current Version | Previous Version | Graphics & Text | Print | Product List | Glossary On
Versions: 1 2 3 4 5 6 7 8 9 10 11 12 13 14 15 16 17 18 19 20 21 22 23 24 25 26 27 28 29 30 31 32 33 34 35 36 37 38 39 40 41 42 43 44 45 46 47 48 49 50
000
ASUS43 KIND 190909
RWRIN

WEATHER ROUNDUP FOR INDIANA
NATIONAL WEATHER SERVICE INDIANAPOLIS IN
400 AM EST SUN FEB 19 2017

NOTE: "FAIR" INDICATES FEW OR NO CLOUDS BELOW 12,000 FEET WITH NO
SIGNIFICANT WEATHER AND/OR OBSTRUCTIONS TO VISIBILITY.

* - STATION DOES NOT REPORT WEATHER SUCH AS PRECIPITATION OR FOG.

+ - STATION NOT QUALITY CONTROLLED BY THE NATIONAL WEATHER SERVICE.
    USE DATA WITH CAUTION...ESPECIALLY DEWPOINT AND RELATIVE
    HUMIDITY OBSERVATIONS.

INZ001>003-010>013-019-020-191000-
NORTHWEST INDIANA

CITY           SKY/WX    TMP DP  RH WIND       PRES   REMARKS
GARY /AIRPORT/ CLEAR     35  33  94 CALM      29.91R
KNOX *+          N/A     36  30  80 CALM      29.91R
LA PORTE +     CLOUDY    32  30  92 CALM      29.90S
MICHIGAN CITY+ CLOUDY    32  32 100 CALM      29.91R
MONTICELLO +   FOG       44  43  96 SW7       29.92R VSB 1/4
RENSSELAER +   CLEAR     41  41 100 SW8       29.92R FOG
VALPARAISO     CLOUDY    39  35  86 NW3       29.90S

$$

LMZ046-743>745-191000-
SOUTHERN LAKE MICHIGAN

STATION/POSITION TIME  TEMP    WIND        PRES    WAVE
                       AIR SEA DIR/SP/G            HT
                 (UTC) (F)     (DEG/KT/KT) (MB)    (FT)
BURNS HARBOR     0840   42     180/  8/  9 1012.9S
MICHIGAN CITY    0840   41     150/  4/  4   N/A

$$

INZ004-005-014>016-021>024-191000-
NORTH CENTRAL INDIANA

CITY           SKY/WX    TMP DP  RH WIND       PRES   REMARKS
GOSHEN         PTCLDY    38  34  85 S3        29.89R FOG
LOGANSPORT +   CLOUDY    45  45 100 W12       29.93R FOG
PERU/GRISSOM   CLOUDY    46  46 100 W12       29.91R FOG
ROCHESTER +    PTCLDY    45  43  93 W3        29.92R
SOUTH BEND     CLOUDY    32  28  85 W3        29.90R
WARSAW +       CLEAR     41  39  93 W3        29.90R

$$

INZ006>009-017-018-025>027-191000-
NORTHEAST INDIANA

CITY           SKY/WX    TMP DP  RH WIND       PRES   REMARKS
ANGOLA *+      CLEAR     34  34 100 CALM      29.88R
AUBURN +       CLEAR     41  37  87 W3        29.90R
FORT WAYNE     PTCLDY    40  38  93 W6        29.90R
HUNTINGTON +   PTCLDY    44  43  96 W8        29.91R
KENDALLVILLE + CLEAR     43  38  85 W6        29.89R

$$

INZ028-029-035-036-043>045-051>053-191000-
WEST CENTRAL INDIANA

CITY           SKY/WX    TMP DP  RH WIND       PRES   REMARKS
GREENCASTLE +  CLOUDY    46  46 100 W6        29.95R FOG
LAFAYETTE      CLOUDY    46  46 100 W7        29.94R FOG
TERRE HAUTE    CLOUDY    50  47  89 W7        29.96R

$$

INZ030>032-037>040-046>048-054>057-064-065-191000-
CENTRAL INDIANA

CITY           SKY/WX    TMP DP  RH WIND       PRES   REMARKS
CP ATTERBURY + CLOUDY    46  45  93 W5        29.95R
FRANKFORT +    CLOUDY    50  48  93 W12       29.95R FOG
GREENWOOD *+   CLOUDY    49  47  95 W8        29.95R
INDIANAPOLIS   CLOUDY    48  46  93 W10       29.95R
-EAGLE CREEK   CLOUDY    48  45  89 W6        29.94R
KOKOMO +       CLOUDY    48  46  93 W13       29.93R FOG
MARION +       CLOUDY    46  45  95 W10       29.93R FOG
MT COMFORT *+  CLOUDY    46  45  93 W12       29.94R
SHELBYVILLE    CLOUDY    48  44  86 W5        29.94R
ZIONSVILLE +   CLOUDY    47  45  95 W9        29.94R

$$

INZ033-034-041-042-049-050-058-059-191000-
EAST CENTRAL INDIANA

CITY           SKY/WX    TMP DP  RH WIND       PRES   REMARKS
MUNCIE         CLOUDY    49  45  86 W9        29.92R

$$

INZ060-061-067>069-081>083-085>088-191000-
SOUTHWEST INDIANA

CITY           SKY/WX    TMP DP  RH WIND       PRES   REMARKS
EVANSVILLE     FOG       50  48  93 SW7       29.98R VSB 3/4
HUNTINGBURG *+ CLOUDY    49  48  97 S7        29.97R FOG
WASHINGTON +   CLOUDY   N/A N/A N/A CALM      29.97R HAZE

$$

INZ062-063-066-070>080-084-089>092-191000-
SOUTH CENTRAL AND SOUTHEAST INDIANA

CITY           SKY/WX    TMP DP  RH WIND       PRES   REMARKS
BEDFORD +      CLOUDY    48  46  93 CALM      29.95  FOG
BLOOMINGTON    FOG       48  45  89 W9        29.95R VSB 1
MADISON *+     CLOUDY    46  45  93 SW5       29.97F
NORTH VERNON + CLOUDY   N/A N/A N/A SW6       29.95S
SEYMOUR +        N/A     43  41  93 SW3       29.95F FOG

$$





USA.gov is the U.S. government's official web portal to all federal, state and local government web resources and services.